Regional Weather Roundup
Issued by NWS

Home | Current Version | Previous Version | Text Only | Print | Product List | Glossary Off
Versions: 1 2 3 4 5 6 7 8 9 10 11 12 13 14 15 16 17 18 19 20 21 22 23 24 25 26 27 28 29 30 31 32 33 34 35 36 37 38 39 40 41 42 43 44 45 46 47 48 49 50

000
ASUS43 KLOT 250306
RWRIL

ILLINOIS REGIONAL WEATHER ROUNDUP
NATIONAL WEATHER SERVICE CHICAGO/ROMEOVILLE IL
1000 PM CDT THU JUL 24 2014

NOTE: "FAIR" INDICATES FEW OR NO CLOUDS BELOW 12,000 FEET WITH NO
SIGNIFICANT WEATHER AND/OR OBSTRUCTIONS TO VISIBILITY.

* THESE STATIONS ARE NOT UNDER NWS QUALITY CONTROL. THEY ALSO MAY NOT
  REPORT WEATHER SUCH AS PRECIPITATION OR FOG.

ILZ001-002-007-009-015-016-024-250400-
NORTHWEST ILLINOIS

CITY           SKY/WX    TMP DP  RH WIND       PRES   REMARKS
MOLINE         CLOUDY    67  57  70 SE6       30.01F
STERLING*      CLOUDY    66  55  68 S3        30.05R
SAVANNA*       CLOUDY    65  56  72 SE7       30.01F
$$

ILZ003-004-008-010-011-017-018-250400-
NORTH CENTRAL ILLINOIS

CITY           SKY/WX    TMP DP  RH WIND       PRES   REMARKS
ROCKFORD       MOCLDY    65  56  72 S3        30.07R
FREEPORT*      CLOUDY    61  57  88 S6        30.07R
ROCHELLE*      MOCLDY    61  56  84 CALM      30.05F
DE KALB*       MOCLDY    61  52  71 SE8       30.06S
PERU*          CLOUDY    66  55  66 SE7       30.05F
$$

ILZ005-006-012>014-019>023-250400-
NORTHEAST ILLINOIS

CITY           SKY/WX    TMP DP  RH WIND       PRES   REMARKS
CHICAGO-OHARE  MOCLDY    64  43  46 SE10      30.06S
CHICAGO-MIDWAY MOCLDY    67  50  54 SE7       30.07F
AURORA         MOCLDY    61  49  64 SE7       30.06F
LANSING*       PTCLDY    60  51  71 SE5       30.08F
JOLIET*        PTCLDY    61  48  62 SE6       30.08S
WAUKEGAN       MOCLDY    57  51  80 SE6       30.05F
DUPAGE AIRPORT MOCLDY    64  46  52 E6        30.06S
KANKAKEE*      PTCLDY    60  54  80 CALM      30.08S
WHEELING       FAIR      64  47  53 SE5       30.07F
MORRIS*        MOCLDY    61  54  77 SE3       30.06S
ROMEOVILLE*    MOCLDY    61  48  62 SE7       30.07S
$$

LMZ740>746-250400-
SOUTHERN LAKE MICHIGAN

STATION/POSITION SKY/WX   TEMP    WIND        PRES    VSBY  WAVE
                          AIR SEA DIR/SP/G                  HT/PER
                          (F)     (DEG/KT/KT) (MB)    (MI)  (FT/S)
SOUTHERN BUOY              61 61  180/  4/  4 1018.4F         0
WAUKEGAN HARBOR            65     170/  8/  9   N/A
HARRISON CRIB              65     130/  9/ 10   N/A
CALUMET HARBOR             65     100/  5/  7 1017.0F
MICHIGAN CITY              63      90/  4/  6   N/A
MICHIGAN CITY 6N           65 69   90/  6/  8   N/A           1/ 2
ST. JOSEPH                 57 51  140/  4/  6   N/A           1/ 3
$$

ILZ025>027-034>036-040-047-049-050-058-095>099-250400-
WEST-CENTRAL ILLINOIS

CITY           SKY/WX    TMP DP  RH WIND       PRES   REMARKS
QUINCY         MOCLDY    69  59  70 CALM      30.06F
GALESBURG*     MOCLDY    67  59  75 SE6       30.01F
MACOMB*        MOCLDY    62  61  97 SE6       30.05F
JACKSONVILLE*  CLEAR     63  57  81 SE3       30.08F
PITTSFIELD*    PTCLDY    64  59  83 CALM      30.08F
$$

ILZ028>032-037-038-041>044-048-051>054-059>061-250400-
CENTRAL ILLINOIS

CITY           SKY/WX    TMP DP  RH WIND       PRES   REMARKS
PONTIAC        MOCLDY    63  61  94 SE5       30.07S
DECATUR        CLOUDY    65  60  84 NE3       30.08R
PEORIA         CLOUDY    71  54  54 SE3       30.05F
LACON*         CLOUDY    64  56  73 SE3       30.04F
LINCOLN*       MOCLDY    67  59  75 CALM      30.04F
SPRINGFIELD    PTCLDY    62  58  86 CALM      30.08R
TAYLORVILLE    PTCLDY    61  55  82 NW3       30.09R
$$

ILZ033-039-045-046-055>057-062-063-250400-
EAST-CENTRAL ILLINOIS

CITY           SKY/WX    TMP DP  RH WIND       PRES   REMARKS
CHAMPAIGN      MOCLDY    63  56  78 NE6       30.08R
DANVILLE*      MOCLDY    59  56  92 CALM      30.06S
RANTOUL*       MOCLDY    66  55  65 CALM      30.09S
MATTOON        MOCLDY    63  58  83 CALM      30.07F
PARIS*         MOCLDY    60  58  94 CALM      30.09R
$$

ILZ079-100>102-250400-
SOUTHWEST ILLINOIS

CITY           SKY/WX    TMP DP  RH WIND       PRES   REMARKS
ALTON          CLEAR     63  61  94 CALM      30.09R
BELLEVILLE     PTCLDY    64  61  88 CALM      30.06R
CAHOKIA*       PTCLDY    66  57  72 CALM      30.07R
SPARTA*        CLEAR     63  55  77 CALM      30.06S
$$

ILZ064>066-069>071-074>076-080>082-084>086-088>090-092>094-250400-
SOUTH-CENTRAL ILLINOIS

CITY           SKY/WX    TMP DP  RH WIND       PRES   REMARKS
CARBONDALE     CLEAR     63  61  93 CALM      30.05F
CAIRO*         CLEAR     67  61  81 CALM      30.06R
EFFINGHAM*     CLOUDY    64  57  78 CALM      30.07R
MARION         CLEAR     64  61  88 CALM      30.06F
MT. VERNON     CLEAR     63  55  77 CALM      30.06F
CENTRALIA*     PTCLDY    62  58  86 CALM      30.06S
SALEM*         PTCLDY    69  60  73 CALM      30.06F
METROPOLIS*    CLEAR     65  58  78 CALM      30.06R
$$

ILZ067-068-072-073-078-083-087-091-250400-
SOUTHEAST ILLINOIS

CITY           SKY/WX    TMP DP  RH WIND       PRES   REMARKS
LAWRENCEVILLE  CLEAR     65  61  87 NE3       30.06F
FLORA*         CLEAR     62  58  87 CALM      30.07F
FAIRFIELD*     CLEAR     63  61  94 CALM      30.06F
HARRISBURG*    CLEAR     65  61  87 CALM      30.07S
ROBINSON*      PTCLDY    63  61  93 CALM      30.08F
CARMI*         MOCLDY    64  64 100 CALM      30.06S
$$

ABBREVIATIONS USED IN REMARKS
   TC - TEMPERATURE IN CELSIUS
  WCI - WIND CHILL INDEX
   HX - HEAT INDEX
  VSB - VISIBILITY
$$



USA.gov is the U.S. government's official web portal to all federal, state and local government web resources and services.